Time,TemperatureF,DewpointF,PressureIn,WindDirection,WindDirectionDegrees,WindSpeedMPH,WindSpeedGustMPH,Humidity,HourlyPrecipIn,Conditions,Clouds,dailyrainin,SoftwareType,DateUTC
2013-07-02 00:01:00,63.2,53.6,29.93,NW,315,0.0,0.0,71,0.00,,,0.00,WUHU216HW,2013-07-02 05:01:00,
2013-07-02 00:06:00,63.2,53.6,29.94,NW,315,0.0,0.0,71,0.00,,,0.00,WUHU216HW,2013-07-02 05:06:00,
2013-07-02 00:11:00,63.0,53.5,29.93,NW,315,0.0,0.0,71,0.00,,,0.00,WUHU216HW,2013-07-02 05:11:00,
2013-07-02 00:16:00,63.0,53.5,29.94,NW,315,0.0,0.0,71,0.00,,,0.00,WUHU216HW,2013-07-02 05:16:00,
2013-07-02 00:21:00,62.8,53.6,29.94,NW,315,0.0,0.0,72,0.00,,,0.00,WUHU216HW,2013-07-02 05:21:00,
2013-07-02 00:26:00,62.8,53.6,29.94,NW,315,0.0,0.0,72,0.00,,,0.00,WUHU216HW,2013-07-02 05:26:00,
2013-07-02 00:31:00,62.6,53.5,29.94,NW,315,0.0,0.0,72,0.00,,,0.00,WUHU216HW,2013-07-02 05:31:00,
2013-07-02 00:37:00,62.6,53.5,29.94,NW,315,0.0,0.0,72,0.00,,,0.00,WUHU216HW,2013-07-02 05:37:00,
2013-07-02 00:42:00,62.5,53.3,29.93,NW,315,0.0,0.0,72,0.00,,,0.00,WUHU216HW,2013-07-02 05:42:00,
2013-07-02 00:47:00,62.5,53.3,29.94,NW,315,0.0,0.0,72,0.00,,,0.00,WUHU216HW,2013-07-02 05:47:00,
2013-07-02 00:52:00,62.3,53.1,29.94,NW,315,0.0,0.0,72,0.00,,,0.00,WUHU216HW,2013-07-02 05:52:00,
2013-07-02 00:57:00,62.3,53.5,29.94,NW,315,0.0,0.0,73,0.00,,,0.00,WUHU216HW,2013-07-02 05:57:00,
2013-07-02 01:02:00,62.1,53.4,29.93,NW,315,0.0,0.0,73,0.00,,,0.00,WUHU216HW,2013-07-02 06:02:00,
2013-07-02 01:07:00,61.9,52.8,29.93,NW,315,0.0,0.0,72,0.00,,,0.00,WUHU216HW,2013-07-02 06:07:00,
2013-07-02 01:12:00,61.9,52.8,29.93,NW,315,0.0,0.0,72,0.00,,,0.00,WUHU216HW,2013-07-02 06:12:00,
2013-07-02 01:17:00,61.7,52.7,29.93,NW,315,0.0,0.0,72,0.00,,,0.00,WUHU216HW,2013-07-02 06:17:00,
2013-07-02 01:22:00,61.6,52.5,29.93,NW,315,0.0,0.0,72,0.00,,,0.00,WUHU216HW,2013-07-02 06:22:00,
2013-07-02 01:27:00,61.6,52.8,29.93,NW,315,0.0,0.0,73,0.00,,,0.00,WUHU216HW,2013-07-02 06:27:00,
2013-07-02 01:32:00,61.6,52.8,29.93,NW,315,0.0,0.0,73,0.00,,,0.00,WUHU216HW,2013-07-02 06:32:00,
2013-07-02 01:37:00,61.2,52.9,29.93,NW,315,0.0,0.0,74,0.00,,,0.00,WUHU216HW,2013-07-02 06:37:00,
2013-07-02 01:42:00,61.2,52.9,29.93,NW,315,0.0,0.0,74,0.00,,,0.00,WUHU216HW,2013-07-02 06:42:00,
2013-07-02 01:47:00,61.0,52.8,29.93,NW,315,0.0,0.0,74,0.00,,,0.00,WUHU216HW,2013-07-02 06:47:00,
2013-07-02 01:52:00,61.0,52.8,29.93,NNW,338,0.0,0.0,74,0.00,,,0.00,WUHU216HW,2013-07-02 06:52:00,
2013-07-02 01:57:00,61.0,52.4,29.93,NNW,338,0.0,0.0,73,0.00,,,0.00,WUHU216HW,2013-07-02 06:57:00,
2013-07-02 02:02:00,61.0,52.4,29.93,NNW,338,0.0,0.0,73,0.00,,,0.00,WUHU216HW,2013-07-02 07:02:00,
2013-07-02 02:06:00,60.8,52.2,29.93,NNW,338,0.0,0.0,73,0.00,,,0.00,WUHU216HW,2013-07-02 07:06:00,
2013-07-02 02:11:00,60.8,52.2,29.93,NNW,338,0.0,0.0,73,0.00,,,0.00,WUHU216HW,2013-07-02 07:11:00,
2013-07-02 02:16:00,60.8,52.2,29.92,NNW,338,0.0,0.0,73,0.00,,,0.00,WUHU216HW,2013-07-02 07:16:00,
2013-07-02 02:21:00,60.7,52.4,29.93,NNW,338,0.0,0.0,74,0.00,,,0.00,WUHU216HW,2013-07-02 07:21:00,
2013-07-02 02:26:00,60.7,52.4,29.92,NNW,338,0.0,0.0,74,0.00,,,0.00,WUHU216HW,2013-07-02 07:26:00,
2013-07-02 02:32:00,60.5,52.2,29.92,NNW,338,0.0,0.0,74,0.00,,,0.00,WUHU216HW,2013-07-02 07:32:00,
2013-07-02 02:36:00,60.5,52.2,29.92,NNW,338,0.0,0.0,74,0.00,,,0.00,WUHU216HW,2013-07-02 07:36:00,
2013-07-02 02:41:00,60.3,52.0,29.92,NNW,338,0.0,0.0,74,0.00,,,0.00,WUHU216HW,2013-07-02 07:41:00,
2013-07-02 02:46:00,60.1,52.2,29.92,NNW,338,0.0,0.0,75,0.00,,,0.00,WUHU216HW,2013-07-02 07:46:00,
2013-07-02 02:51:00,60.1,52.2,29.92,NNW,338,0.0,0.0,75,0.00,,,0.00,WUHU216HW,2013-07-02 07:51:00,
2013-07-02 02:56:00,59.9,52.0,29.92,NNW,338,0.0,0.0,75,0.00,,,0.00,WUHU216HW,2013-07-02 07:56:00,
2013-07-02 03:01:00,59.8,52.2,29.92,NNW,338,0.0,0.0,76,0.00,,,0.00,WUHU216HW,2013-07-02 08:01:00,
2013-07-02 03:06:00,59.6,52.0,29.92,NNW,338,0.0,0.0,76,0.00,,,0.00,WUHU216HW,2013-07-02 08:06:00,
2013-07-02 03:11:00,59.6,52.0,29.92,NNW,338,0.0,0.0,76,0.00,,,0.00,WUHU216HW,2013-07-02 08:11:00,
2013-07-02 03:16:00,59.4,51.8,29.92,NNW,338,0.0,0.0,76,0.00,,,0.00,WUHU216HW,2013-07-02 08:16:00,
2013-07-02 03:21:00,59.4,51.8,29.92,NNW,338,0.0,0.0,76,0.00,,,0.00,WUHU216HW,2013-07-02 08:21:00,
2013-07-02 03:26:00,59.2,52.0,29.92,NNW,338,0.0,0.0,77,0.00,,,0.00,WUHU216HW,2013-07-02 08:26:00,
2013-07-02 03:31:00,59.2,52.0,29.92,NNW,338,0.0,0.0,77,0.00,,,0.00,WUHU216HW,2013-07-02 08:31:00,
2013-07-02 03:36:00,59.0,51.8,29.92,NNW,338,0.0,0.0,77,0.00,,,0.00,WUHU216HW,2013-07-02 08:36:00,
2013-07-02 03:41:00,58.9,51.7,29.92,NNW,338,0.0,0.0,77,0.00,,,0.00,WUHU216HW,2013-07-02 08:41:00,
2013-07-02 03:46:00,58.9,52.0,29.92,NNW,338,0.0,0.0,78,0.00,,,0.00,WUHU216HW,2013-07-02 08:46:00,
2013-07-02 03:51:00,58.7,51.8,29.92,NNW,338,0.0,0.0,78,0.00,,,0.00,WUHU216HW,2013-07-02 08:51:00,
2013-07-02 03:56:00,58.7,51.8,29.92,NNW,338,0.0,0.0,78,0.00,,,0.00,WUHU216HW,2013-07-02 08:56:00,
2013-07-02 04:01:00,58.7,51.8,29.92,NNW,338,0.0,0.0,78,0.00,,,0.00,WUHU216HW,2013-07-02 09:01:00,
2013-07-02 04:06:00,58.7,52.2,29.92,NNW,338,0.0,0.0,79,0.00,,,0.00,WUHU216HW,2013-07-02 09:06:00,
2013-07-02 04:11:00,58.5,52.0,29.93,NNW,338,0.0,0.0,79,0.00,,,0.00,WUHU216HW,2013-07-02 09:11:00,
2013-07-02 04:16:00,58.3,51.8,29.93,NNW,338,0.0,0.0,79,0.00,,,0.00,WUHU216HW,2013-07-02 09:16:00,
2013-07-02 04:21:00,58.3,51.8,29.93,NNW,338,0.0,0.0,79,0.00,,,0.00,WUHU216HW,2013-07-02 09:21:00,
2013-07-02 04:26:00,58.3,51.8,29.92,NNW,338,0.0,0.0,79,0.00,,,0.00,WUHU216HW,2013-07-02 09:26:00,
2013-07-02 04:31:00,58.1,52.0,29.93,NNW,338,0.0,0.0,80,0.00,,,0.00,WUHU216HW,2013-07-02 09:31:00,
2013-07-02 04:36:00,58.1,52.0,29.93,NNW,338,0.0,0.0,80,0.00,,,0.00,WUHU216HW,2013-07-02 09:36:00,
2013-07-02 04:41:00,58.0,51.8,29.93,NNW,338,0.0,0.0,80,0.00,,,0.00,WUHU216HW,2013-07-02 09:41:00,
2013-07-02 04:46:00,58.0,51.8,29.93,NNW,338,0.0,0.0,80,0.00,,,0.00,WUHU216HW,2013-07-02 09:46:00,
2013-07-02 04:51:00,58.0,51.8,29.93,NNW,338,0.0,0.0,80,0.00,,,0.00,WUHU216HW,2013-07-02 09:51:00,
2013-07-02 04:57:00,58.0,51.8,29.93,NNW,338,0.0,0.0,80,0.00,,,0.00,WUHU216HW,2013-07-02 09:57:00,
2013-07-02 05:01:00,57.8,51.7,29.93,NNW,338,0.0,0.0,80,0.00,,,0.00,WUHU216HW,2013-07-02 10:01:00,
2013-07-02 05:06:00,57.6,51.9,29.93,NNW,338,0.0,0.0,81,0.00,,,0.00,WUHU216HW,2013-07-02 10:06:00,
2013-07-02 05:11:00,57.6,51.9,29.93,NNW,338,0.0,0.0,81,0.00,,,0.00,WUHU216HW,2013-07-02 10:11:00,
2013-07-02 05:16:00,57.6,51.9,29.93,NNW,338,0.0,0.0,81,0.00,,,0.00,WUHU216HW,2013-07-02 10:16:00,
2013-07-02 05:21:00,57.6,51.9,29.93,NNW,338,0.0,0.0,81,0.00,,,0.00,WUHU216HW,2013-07-02 10:21:00,
2013-07-02 05:26:00,57.6,51.9,29.94,NNW,338,0.0,0.0,81,0.00,,,0.00,WUHU216HW,2013-07-02 10:26:00,
2013-07-02 05:31:00,57.6,51.9,29.93,NNW,338,0.0,0.0,81,0.00,,,0.00,WUHU216HW,2013-07-02 10:31:00,
2013-07-02 05:37:00,57.4,51.7,29.94,NNW,338,0.0,0.0,81,0.00,,,0.00,WUHU216HW,2013-07-02 10:37:00,
2013-07-02 05:42:00,57.4,51.7,29.94,NNW,338,0.0,0.0,81,0.00,,,0.00,WUHU216HW,2013-07-02 10:42:00,
2013-07-02 05:47:00,57.2,51.5,29.94,NNW,338,0.0,0.0,81,0.00,,,0.00,WUHU216HW,2013-07-02 10:47:00,
2013-07-02 05:52:00,57.2,51.5,29.94,NNW,338,0.0,0.0,81,0.00,,,0.00,WUHU216HW,2013-07-02 10:52:00,
2013-07-02 05:57:00,57.2,51.8,29.94,NNW,338,0.0,0.0,82,0.00,,,0.00,WUHU216HW,2013-07-02 10:57:00,
2013-07-02 06:02:00,57.2,51.8,29.94,NNW,338,0.0,0.0,82,0.00,,,0.00,WUHU216HW,2013-07-02 11:02:00,
2013-07-02 06:07:00,57.2,51.8,29.94,NNW,338,0.0,0.0,82,0.00,,,0.00,WUHU216HW,2013-07-02 11:07:00,
2013-07-02 06:12:00,57.2,51.8,29.95,NNW,338,0.0,0.0,82,0.00,,,0.00,WUHU216HW,2013-07-02 11:12:00,
2013-07-02 06:17:00,57.2,51.8,29.95,NNW,338,0.0,0.0,82,0.00,,,0.00,WUHU216HW,2013-07-02 11:17:00,
2013-07-02 06:22:00,57.2,51.8,29.95,NNW,338,0.0,0.0,82,0.00,,,0.00,WUHU216HW,2013-07-02 11:22:00,
2013-07-02 06:27:00,57.2,51.8,29.95,NNW,338,0.0,0.0,82,0.00,,,0.00,WUHU216HW,2013-07-02 11:27:00,
2013-07-02 06:32:00,57.2,51.8,29.95,NNW,338,0.0,0.0,82,0.00,,,0.00,WUHU216HW,2013-07-02 11:32:00,
2013-07-02 06:37:00,57.2,52.1,29.95,NNW,338,0.0,0.0,83,0.00,,,0.00,WUHU216HW,2013-07-02 11:37:00,
2013-07-02 06:42:00,57.2,52.1,29.95,NNW,338,0.0,0.0,83,0.00,,,0.00,WUHU216HW,2013-07-02 11:42:00,
2013-07-02 06:47:00,57.2,52.1,29.96,NNW,338,0.0,0.0,83,0.00,,,0.00,WUHU216HW,2013-07-02 11:47:00,
2013-07-02 06:52:00,57.2,52.1,29.96,NNW,338,0.0,0.0,83,0.00,,,0.00,WUHU216HW,2013-07-02 11:52:00,
2013-07-02 06:57:00,57.2,52.1,29.96,NNW,338,0.0,0.0,83,0.00,,,0.00,WUHU216HW,2013-07-02 11:57:00,
2013-07-02 07:02:00,57.6,52.5,29.96,NNW,338,0.0,0.0,83,0.00,,,0.00,WUHU216HW,2013-07-02 12:02:00,
2013-07-02 07:07:00,57.6,52.5,29.96,NNW,338,0.0,0.0,83,0.00,,,0.00,WUHU216HW,2013-07-02 12:07:00,
2013-07-02 07:12:00,57.8,52.7,29.96,North,0,0.4,0.4,83,0.00,,,0.00,WUHU216HW,2013-07-02 12:12:00,
2013-07-02 07:17:00,58.0,52.8,29.96,North,0,0.4,0.4,83,0.00,,,0.00,WUHU216HW,2013-07-02 12:17:00,
2013-07-02 07:22:00,58.1,53.0,29.96,NNW,338,0.3,0.7,83,0.00,,,0.00,WUHU216HW,2013-07-02 12:22:00,
2013-07-02 07:27:00,58.3,53.2,29.96,ENE,68,0.4,1.1,83,0.00,,,0.00,WUHU216HW,2013-07-02 12:27:00,
2013-07-02 07:32:00,58.5,53.4,29.96,North,0,0.1,1.1,83,0.00,,,0.00,WUHU216HW,2013-07-02 12:32:00,
2013-07-02 07:37:00,58.7,53.6,29.96,WSW,248,0.1,0.4,83,0.00,,,0.00,WUHU216HW,2013-07-02 12:37:00,
2013-07-02 07:42:00,59.0,53.9,29.97,North,0,0.7,0.7,83,0.00,,,0.00,WUHU216HW,2013-07-02 12:42:00,
2013-07-02 07:47:00,59.2,54.1,29.97,North,0,0.2,0.7,83,0.00,,,0.00,WUHU216HW,2013-07-02 12:47:00,
2013-07-02 07:52:00,59.6,54.5,29.97,NNE,17,0.8,1.3,83,0.00,,,0.00,WUHU216HW,2013-07-02 12:52:00,
2013-07-02 07:57:00,59.9,54.8,29.97,NNW,338,0.7,1.3,83,0.00,,,0.00,WUHU216HW,2013-07-02 12:57:00,
2013-07-02 08:02:00,60.7,55.5,29.97,North,0,1.1,1.1,83,0.00,,,0.00,WUHU216HW,2013-07-02 13:02:00,
2013-07-02 08:07:00,60.8,55.4,29.97,North,0,0.9,1.1,82,0.00,,,0.00,WUHU216HW,2013-07-02 13:07:00,
2013-07-02 08:12:00,61.2,55.7,29.97,North,0,2.5,2.5,82,0.00,,,0.00,WUHU216HW,2013-07-02 13:12:00,
2013-07-02 08:17:00,61.9,56.1,29.97,North,0,1.3,2.5,81,0.00,,,0.00,WUHU216HW,2013-07-02 13:17:00,
2013-07-02 08:22:00,62.3,56.3,29.97,North,0,0.2,2.2,81,0.00,,,0.00,WUHU216HW,2013-07-02 13:22:00,
2013-07-02 08:27:00,62.6,56.3,29.97,North,0,1.8,3.4,80,0.00,,,0.00,WUHU216HW,2013-07-02 13:27:00,
2013-07-02 08:32:00,63.0,56.3,29.98,NNW,330,0.8,3.4,79,0.00,,,0.00,WUHU216HW,2013-07-02 13:32:00,
2013-07-02 08:37:00,63.4,56.7,29.98,North,0,0.4,1.8,79,0.00,,,0.00,WUHU216HW,2013-07-02 13:37:00,
2013-07-02 08:42:00,63.5,57.2,29.98,North,0,1.6,1.6,80,0.00,,,0.00,WUHU216HW,2013-07-02 13:42:00,
2013-07-02 08:47:00,63.7,57.1,29.98,NNE,31,1.2,1.6,79,0.00,,,0.00,WUHU216HW,2013-07-02 13:47:00,
2013-07-02 08:52:00,64.1,57.8,29.98,North,0,0.6,1.3,80,0.00,,,0.00,WUHU216HW,2013-07-02 13:52:00,
2013-07-02 08:57:00,64.4,57.8,29.98,North,0,1.3,1.3,79,0.00,,,0.00,WUHU216HW,2013-07-02 13:57:00,
2013-07-02 09:02:00,64.8,57.8,29.98,NNE,23,1.1,1.8,78,0.00,,,0.00,WUHU216HW,2013-07-02 14:02:00,
2013-07-02 09:07:00,65.0,58.0,29.98,NNE,23,1.8,1.8,78,0.00,,,0.00,WUHU216HW,2013-07-02 14:07:00,
2013-07-02 09:12:00,65.3,58.0,29.98,North,0,0.6,1.8,77,0.00,,,0.00,WUHU216HW,2013-07-02 14:12:00,
2013-07-02 09:17:00,65.9,58.5,29.98,North,0,1.0,1.6,77,0.00,,,0.00,WUHU216HW,2013-07-02 14:17:00,
2013-07-02 09:22:00,66.4,58.2,29.98,WNW,293,1.3,1.8,75,0.00,,,0.00,WUHU216HW,2013-07-02 14:22:00,
2013-07-02 09:27:00,66.8,57.9,29.98,ENE,68,0.4,1.8,73,0.00,,,0.00,WUHU216HW,2013-07-02 14:27:00,
2013-07-02 09:32:00,67.3,58.8,29.98,NNE,14,0.9,2.5,74,0.00,,,0.00,WUHU216HW,2013-07-02 14:32:00,
2013-07-02 09:37:00,67.5,58.6,29.98,NNW,338,1.1,2.5,73,0.00,,,0.00,WUHU216HW,2013-07-02 14:37:00,
2013-07-02 09:42:00,67.7,58.3,29.98,ENE,71,1.1,2.5,72,0.00,,,0.00,WUHU216HW,2013-07-02 14:42:00,
2013-07-02 09:47:00,68.0,59.1,29.98,NW,321,0.8,2.5,73,0.00,,,0.00,WUHU216HW,2013-07-02 14:47:00,
2013-07-02 09:52:00,68.6,59.2,29.98,North,354,2.0,2.9,72,0.00,,,0.00,WUHU216HW,2013-07-02 14:52:00,
2013-07-02 09:57:00,69.1,59.3,29.98,North,7,1.3,2.9,71,0.00,,,0.00,WUHU216HW,2013-07-02 14:57:00,
2013-07-02 10:02:00,69.7,59.8,29.98,NW,309,0.8,1.8,71,0.00,,,0.00,WUHU216HW,2013-07-02 15:02:00,
2013-07-02 10:07:00,70.2,59.9,29.98,WNW,284,1.7,1.8,70,0.00,,,0.00,WUHU216HW,2013-07-02 15:07:00,
2013-07-02 10:12:00,70.9,60.7,29.98,North,358,1.4,2.5,70,0.00,,,0.00,WUHU216HW,2013-07-02 15:12:00,
2013-07-02 10:17:00,71.5,61.2,29.98,North,1,1.7,2.5,70,0.00,,,0.00,WUHU216HW,2013-07-02 15:17:00,
2013-07-02 10:22:00,71.6,60.5,29.98,North,0,1.3,1.8,68,0.00,,,0.00,WUHU216HW,2013-07-02 15:22:00,
2013-07-02 10:27:00,71.8,61.1,29.98,NNE,19,1.5,1.8,69,0.00,,,0.00,WUHU216HW,2013-07-02 15:27:00,
2013-07-02 10:32:00,72.0,60.8,29.98,North,0,2.5,2.9,68,0.00,,,0.00,WUHU216HW,2013-07-02 15:32:00,
2013-07-02 10:37:00,72.0,60.4,29.98,North,0,1.8,2.9,67,0.00,,,0.00,WUHU216HW,2013-07-02 15:37:00,
2013-07-02 10:42:00,72.2,60.2,29.98,NW,322,1.1,2.7,66,0.00,,,0.00,WUHU216HW,2013-07-02 15:42:00,
2013-07-02 10:47:00,72.4,60.3,29.98,West,259,1.2,2.7,66,0.00,,,0.00,WUHU216HW,2013-07-02 15:47:00,
2013-07-02 10:52:00,72.5,60.0,29.98,NNE,23,2.5,3.8,65,0.00,,,0.00,WUHU216HW,2013-07-02 15:52:00,
2013-07-02 10:57:00,72.9,60.4,29.98,SW,225,1.8,3.8,65,0.00,,,0.00,WUHU216HW,2013-07-02 15:57:00,
2013-07-02 11:02:00,73.3,60.3,29.98,NNE,23,3.3,4.7,64,0.00,,,0.00,WUHU216HW,2013-07-02 16:02:00,
2013-07-02 11:07:00,73.6,60.2,29.98,NNE,20,2.1,4.7,63,0.00,,,0.00,WUHU216HW,2013-07-02 16:07:00,
2013-07-02 11:12:00,73.8,59.0,29.98,NW,324,1.7,4.3,60,0.00,,,0.00,WUHU216HW,2013-07-02 16:12:00,
2013-07-02 11:17:00,73.6,59.3,29.98,North,0,1.5,4.3,61,0.00,,,0.00,WUHU216HW,2013-07-02 16:17:00,
2013-07-02 11:22:00,74.0,59.2,29.98,North,0,3.4,4.7,60,0.00,,,0.00,WUHU216HW,2013-07-02 16:22:00,
2013-07-02 11:27:00,74.2,59.4,29.98,West,275,1.9,4.7,60,0.00,,,0.00,WUHU216HW,2013-07-02 16:27:00,
2013-07-02 11:32:00,74.2,58.4,29.98,North,0,1.8,6.3,58,0.00,,,0.00,WUHU216HW,2013-07-02 16:32:00,
2013-07-02 11:37:00,74.7,58.0,29.98,North,0,2.5,6.3,56,0.00,,,0.00,WUHU216HW,2013-07-02 16:37:00,
2013-07-02 11:42:00,74.7,58.0,29.98,NNE,23,3.3,4.7,56,0.00,,,0.00,WUHU216HW,2013-07-02 16:42:00,
2013-07-02 11:47:00,74.9,57.1,29.98,West,272,1.9,4.7,54,0.00,,,0.00,WUHU216HW,2013-07-02 16:47:00,
2013-07-02 11:52:00,74.9,56.6,29.98,NE,45,1.1,4.3,53,0.00,,,0.00,WUHU216HW,2013-07-02 16:52:00,
2013-07-02 11:57:00,75.2,56.0,29.98,North,0,2.2,2.5,51,0.00,,,0.00,WUHU216HW,2013-07-02 16:57:00,
2013-07-02 12:02:00,75.2,56.4,29.98,ESE,113,2.9,3.8,52,0.00,,,0.00,WUHU216HW,2013-07-02 17:02:00,
2013-07-02 12:07:00,75.4,56.6,29.98,North,0,4.5,4.5,52,0.00,,,0.00,WUHU216HW,2013-07-02 17:07:00,
2013-07-02 12:12:00,75.6,56.3,29.98,North,0,2.2,4.5,51,0.00,,,0.00,WUHU216HW,2013-07-02 17:12:00,
2013-07-02 12:17:00,75.8,56.4,29.98,North,0,2.5,3.8,51,0.00,,,0.00,WUHU216HW,2013-07-02 17:17:00,
2013-07-02 12:22:00,76.0,56.1,29.98,NW,315,4.0,4.0,50,0.00,,,0.00,WUHU216HW,2013-07-02 17:22:00,
2013-07-02 12:27:00,76.1,56.8,29.98,North,0,3.8,4.0,51,0.00,,,0.00,WUHU216HW,2013-07-02 17:27:00,
2013-07-02 12:32:00,76.1,56.8,29.98,North,0,2.2,4.7,51,0.00,,,0.00,WUHU216HW,2013-07-02 17:32:00,
2013-07-02 12:37:00,76.1,56.8,29.98,NNE,15,2.0,4.7,51,0.00,,,0.00,WUHU216HW,2013-07-02 17:37:00,
2013-07-02 12:42:00,76.3,55.8,29.98,NNE,23,2.9,3.8,49,0.00,,,0.00,WUHU216HW,2013-07-02 17:42:00,
2013-07-02 12:47:00,76.5,55.4,29.98,North,356,3.5,5.6,48,0.00,,,0.00,WUHU216HW,2013-07-02 17:47:00,
2013-07-02 12:52:00,76.7,55.5,29.98,North,0,2.5,5.6,48,0.00,,,0.00,WUHU216HW,2013-07-02 17:52:00,
2013-07-02 12:57:00,76.7,56.2,29.98,NNW,330,2.3,3.1,49,0.00,,,0.00,WUHU216HW,2013-07-02 17:57:00,
2013-07-02 13:02:00,77.0,54.6,29.98,NNE,23,5.4,6.3,46,0.00,,,0.00,WUHU216HW,2013-07-02 18:02:00,
2013-07-02 13:07:00,76.9,55.7,29.98,North,0,2.2,6.3,48,0.00,,,0.00,WUHU216HW,2013-07-02 18:07:00,
2013-07-02 13:12:00,77.0,57.1,29.97,North,0,3.1,5.8,50,0.00,,,0.00,WUHU216HW,2013-07-02 18:12:00,
2013-07-02 13:17:00,77.4,57.9,29.98,NNE,23,3.1,5.8,51,0.00,,,0.00,WUHU216HW,2013-07-02 18:17:00,
2013-07-02 13:22:00,77.4,57.4,29.97,NNW,338,2.5,3.4,50,0.00,,,0.00,WUHU216HW,2013-07-02 18:22:00,
2013-07-02 13:27:00,77.6,55.7,29.97,NNW,338,5.8,5.8,47,0.00,,,0.00,WUHU216HW,2013-07-02 18:27:00,
2013-07-02 13:32:00,77.4,56.8,29.97,North,0,2.7,7.2,49,0.00,,,0.00,WUHU216HW,2013-07-02 18:32:00,
2013-07-02 13:37:00,77.4,55.5,29.97,NNE,13,4.7,7.2,47,0.00,,,0.00,WUHU216HW,2013-07-02 18:37:00,
2013-07-02 13:42:00,77.4,56.2,29.97,East,90,3.4,5.4,48,0.00,,,0.00,WUHU216HW,2013-07-02 18:42:00,
2013-07-02 13:47:00,77.6,57.5,29.96,NNW,338,1.1,4.5,50,0.00,,,0.00,WUHU216HW,2013-07-02 18:47:00,
2013-07-02 13:52:00,77.9,57.2,29.97,North,8,2.4,4.7,49,0.00,,,0.00,WUHU216HW,2013-07-02 18:52:00,
2013-07-02 13:57:00,78.3,58.2,29.96,NNE,23,2.9,4.7,50,0.00,,,0.00,WUHU216HW,2013-07-02 18:57:00,
2013-07-02 14:02:00,78.5,56.5,29.97,NNE,29,4.9,6.3,47,0.00,,,0.00,WUHU216HW,2013-07-02 19:02:00,
2013-07-02 14:07:00,78.3,56.3,29.97,NNE,23,7.6,7.6,47,0.00,,,0.00,WUHU216HW,2013-07-02 19:07:00,
2013-07-02 14:12:00,77.9,55.5,29.96,NNE,26,3.8,7.6,46,0.00,,,0.00,WUHU216HW,2013-07-02 19:12:00,
2013-07-02 14:17:00,77.8,55.3,29.96,ENE,61,3.3,5.4,46,0.00,,,0.00,WUHU216HW,2013-07-02 19:17:00,
2013-07-02 14:22:00,77.8,55.9,29.96,NE,45,2.5,3.4,47,0.00,,,0.00,WUHU216HW,2013-07-02 19:22:00,
2013-07-02 14:27:00,77.9,57.2,29.96,East,90,4.3,4.7,49,0.00,,,0.00,WUHU216HW,2013-07-02 19:27:00,
2013-07-02 14:32:00,78.1,57.4,29.96,North,9,2.8,6.5,49,0.00,,,0.00,WUHU216HW,2013-07-02 19:32:00,
2013-07-02 14:33:00,78.3,57.6,29.96,NNE,30,1.7,6.5,49,0.00,,,0.00,WUHU216HW,2013-07-02 19:33:00,
2013-07-02 14:34:00,78.3,57.6,29.96,NW,315,1.1,6.5,49,0.00,,,0.00,WUHU216HW,2013-07-02 19:34:00,
2013-07-02 14:36:00,78.5,58.3,29.96,North,0,3.4,6.5,50,0.00,,,0.00,WUHU216HW,2013-07-02 19:36:00,
2013-07-02 14:37:00,78.5,57.8,29.96,North,0,4.9,6.5,49,0.00,,,0.00,WUHU216HW,2013-07-02 19:37:00,
2013-07-02 14:39:00,78.7,58.5,29.96,NNW,338,2.5,4.9,50,0.00,,,0.00,WUHU216HW,2013-07-02 19:39:00,
2013-07-02 14:40:00,78.8,58.1,29.96,NNW,347,2.2,4.9,49,0.00,,,0.00,WUHU216HW,2013-07-02 19:40:00,
2013-07-02 14:42:00,78.8,57.4,29.96,North,8,2.3,4.9,48,0.00,,,0.00,WUHU216HW,2013-07-02 19:42:00,
2013-07-02 14:43:00,78.7,57.9,29.96,North,0,1.6,4.9,49,0.00,,,0.00,WUHU216HW,2013-07-02 19:43:00,
2013-07-02 14:45:00,78.8,58.1,29.96,North,353,1.8,4.9,49,0.00,,,0.00,WUHU216HW,2013-07-02 19:45:00,
2013-07-02 14:46:00,78.8,58.1,29.96,NNE,31,1.0,4.9,49,0.00,,,0.00,WUHU216HW,2013-07-02 19:46:00,
2013-07-02 14:48:00,78.8,58.1,29.96,NE,45,2.9,3.1,49,0.00,,,0.00,WUHU216HW,2013-07-02 19:48:00,
2013-07-02 14:49:00,79.0,58.2,29.96,ENE,57,2.0,3.1,49,0.00,,,0.00,WUHU216HW,2013-07-02 19:49:00,
2013-07-02 14:51:00,78.8,56.9,29.96,SE,135,3.6,3.6,47,0.00,,,0.00,WUHU216HW,2013-07-02 19:51:00,
2013-07-02 14:52:00,79.0,57.0,29.96,North,0,4.7,4.7,47,0.00,,,0.00,WUHU216HW,2013-07-02 19:52:00,
2013-07-02 14:54:00,78.7,56.1,29.96,NNE,23,6.3,6.3,46,0.00,,,0.00,WUHU216HW,2013-07-02 19:54:00,
2013-07-02 14:55:00,78.5,55.9,29.96,North,0,7.8,7.8,46,0.00,,,0.00,WUHU216HW,2013-07-02 19:55:00,
2013-07-02 14:57:00,78.1,55.6,29.96,NE,38,1.8,7.8,46,0.00,,,0.00,WUHU216HW,2013-07-02 19:57:00,
2013-07-02 14:58:00,77.9,56.1,29.96,North,0,2.0,7.8,47,0.00,,,0.00,WUHU216HW,2013-07-02 19:58:00,
2013-07-02 15:00:00,77.8,55.9,29.96,North,350,1.2,7.8,47,0.00,,,0.00,WUHU216HW,2013-07-02 20:00:00,
2013-07-02 15:01:00,77.6,56.4,29.96,NNW,338,1.8,7.8,48,0.00,,,0.00,WUHU216HW,2013-07-02 20:01:00,
2013-07-02 15:02:00,77.8,55.3,29.96,NNE,23,2.2,7.8,46,0.00,,,0.00,WUHU216HW,2013-07-02 20:02:00,
2013-07-02 15:03:00,77.8,56.5,29.96,North,1,2.1,7.8,48,0.00,,,0.00,WUHU216HW,2013-07-02 20:03:00,
2013-07-02 15:04:00,77.8,57.1,29.96,NNW,338,4.0,7.8,49,0.00,,,0.00,WUHU216HW,2013-07-02 20:04:00,
2013-07-02 15:05:00,77.9,57.2,29.96,NNW,338,2.8,4.0,49,0.00,,,0.00,WUHU216HW,2013-07-02 20:05:00,
2013-07-02 15:06:00,78.1,57.4,29.96,NNW,338,2.9,4.0,49,0.00,,,0.00,WUHU216HW,2013-07-02 20:06:00,
2013-07-02 15:07:00,78.1,57.4,29.96,NNW,338,2.3,4.0,49,0.00,,,0.00,WUHU216HW,2013-07-02 20:07:00,
2013-07-02 15:08:00,78.3,57.6,29.96,SSW,203,1.8,4.0,49,0.00,,,0.00,WUHU216HW,2013-07-02 20:08:00,
2013-07-02 15:09:00,78.5,57.2,29.96,WSW,239,1.5,4.0,48,0.00,,,0.00,WUHU216HW,2013-07-02 20:09:00,
2013-07-02 15:10:00,78.5,57.2,29.96,NNE,23,6.3,6.3,48,0.00,,,0.00,WUHU216HW,2013-07-02 20:10:00,
2013-07-02 15:11:00,78.5,55.9,29.96,NNE,32,4.1,6.3,46,0.00,,,0.00,WUHU216HW,2013-07-02 20:11:00,
2013-07-02 15:12:00,78.5,55.9,29.96,North,0,2.5,6.3,46,0.00,,,0.00,WUHU216HW,2013-07-02 20:12:00,
2013-07-02 15:13:00,78.5,56.5,29.96,North,351,2.2,6.3,47,0.00,,,0.00,WUHU216HW,2013-07-02 20:13:00,
2013-07-02 15:14:00,78.5,57.2,29.96,North,0,2.5,6.3,48,0.00,,,0.00,WUHU216HW,2013-07-02 20:14:00,
2013-07-02 15:15:00,78.5,57.8,29.96,North,0,2.3,6.3,49,0.00,,,0.00,WUHU216HW,2013-07-02 20:15:00,
2013-07-02 15:16:00,78.5,57.8,29.96,North,0,2.7,6.3,49,0.00,,,0.00,WUHU216HW,2013-07-02 20:16:00,
2013-07-02 15:17:00,78.7,57.9,29.96,North,354,1.9,6.3,49,0.00,,,0.00,WUHU216HW,2013-07-02 20:17:00,
2013-07-02 15:18:00,78.7,57.9,29.96,NNE,23,4.7,6.3,49,0.00,,,0.00,WUHU216HW,2013-07-02 20:18:00,
2013-07-02 15:19:00,78.7,57.3,29.96,North,6,3.8,6.3,48,0.00,,,0.00,WUHU216HW,2013-07-02 20:19:00,
2013-07-02 15:20:00,78.8,57.4,29.96,NE,35,2.7,4.7,48,0.00,,,0.00,WUHU216HW,2013-07-02 20:20:00,
2013-07-02 15:21:00,78.8,58.1,29.95,NNW,338,2.5,4.7,49,0.00,,,0.00,WUHU216HW,2013-07-02 20:21:00,
2013-07-02 15:22:00,79.0,58.9,29.95,NE,37,2.0,4.7,50,0.00,,,0.00,WUHU216HW,2013-07-02 20:22:00,
2013-07-02 15:23:00,79.0,58.9,29.95,East,90,1.3,4.7,50,0.00,,,0.00,WUHU216HW,2013-07-02 20:23:00,
2013-07-02 15:24:00,79.2,58.4,29.95,NNE,23,2.5,4.7,49,0.00,,,0.00,WUHU216HW,2013-07-02 20:24:00,
2013-07-02 15:25:00,79.2,58.4,29.96,NNE,14,2.0,4.7,49,0.00,,,0.00,WUHU216HW,2013-07-02 20:25:00,
2013-07-02 15:26:00,79.2,57.8,29.96,ENE,68,2.2,4.7,48,0.00,,,0.00,WUHU216HW,2013-07-02 20:26:00,
2013-07-02 15:27:00,79.2,58.4,29.96,NE,36,2.1,4.7,49,0.00,,,0.00,WUHU216HW,2013-07-02 20:27:00,
2013-07-02 15:28:00,79.4,57.3,29.96,NNW,339,1.9,2.9,47,0.00,,,0.00,WUHU216HW,2013-07-02 20:28:00,
2013-07-02 15:29:00,79.2,57.8,29.96,NE,45,1.8,2.5,48,0.00,,,0.00,WUHU216HW,2013-07-02 20:29:00,
2013-07-02 15:30:00,79.2,57.8,29.96,NNE,28,1.5,2.5,48,0.00,,,0.00,WUHU216HW,2013-07-02 20:30:00,
2013-07-02 15:31:00,79.2,57.8,29.96,NNE,23,3.4,3.4,48,0.00,,,0.00,WUHU216HW,2013-07-02 20:31:00,
2013-07-02 15:32:00,79.2,58.4,29.96,North,3,3.1,3.4,49,0.00,,,0.00,WUHU216HW,2013-07-02 20:32:00,
2013-07-02 15:33:00,79.2,57.8,29.96,NNE,23,2.7,3.4,48,0.00,,,0.00,WUHU216HW,2013-07-02 20:33:00,
2013-07-02 15:34:00,79.2,58.4,29.96,NNW,338,2.9,3.4,49,0.00,,,0.00,WUHU216HW,2013-07-02 20:34:00,
2013-07-02 15:35:00,79.2,58.4,29.96,NNE,23,2.9,3.4,49,0.00,,,0.00,WUHU216HW,2013-07-02 20:35:00,
2013-07-02 15:36:00,79.2,57.2,29.96,NNE,12,2.8,3.4,47,0.00,,,0.00,WUHU216HW,2013-07-02 20:36:00,
2013-07-02 15:37:00,79.0,57.0,29.96,North,11,2.6,3.4,47,0.00,,,0.00,WUHU216HW,2013-07-02 20:37:00,
2013-07-02 15:38:00,79.0,57.6,29.96,NNE,15,1.5,3.4,48,0.00,,,0.00,WUHU216HW,2013-07-02 20:38:00,
2013-07-02 15:39:00,79.0,57.6,29.96,North,0,4.5,4.5,48,0.00,,,0.00,WUHU216HW,2013-07-02 20:39:00,
2013-07-02 15:40:00,78.8,57.4,29.96,North,0,3.2,4.5,48,0.00,,,0.00,WUHU216HW,2013-07-02 20:40:00,
2013-07-02 15:41:00,78.8,58.1,29.96,North,0,2.2,4.5,49,0.00,,,0.00,WUHU216HW,2013-07-02 20:41:00,
2013-07-02 15:42:00,78.8,58.1,29.96,NNE,23,2.5,4.5,49,0.00,,,0.00,WUHU216HW,2013-07-02 20:42:00,
2013-07-02 15:43:00,78.7,57.3,29.95,NE,44,1.7,4.5,48,0.00,,,0.00,WUHU216HW,2013-07-02 20:43:00,
2013-07-02 15:44:00,78.7,57.9,29.96,North,0,1.6,4.5,49,0.00,,,0.00,WUHU216HW,2013-07-02 20:44:00,
2013-07-02 15:45:00,78.7,57.3,29.95,North,0,3.1,4.5,48,0.00,,,0.00,WUHU216HW,2013-07-02 20:45:00,
2013-07-02 15:46:00,78.7,56.7,29.96,East,90,4.5,4.5,47,0.00,,,0.00,WUHU216HW,2013-07-02 20:46:00,
2013-07-02 15:47:00,78.7,57.3,29.95,NE,46,4.0,4.5,48,0.00,,,0.00,WUHU216HW,2013-07-02 20:47:00,
2013-07-02 15:48:00,78.7,57.9,29.96,North,0,3.4,4.5,49,0.00,,,0.00,WUHU216HW,2013-07-02 20:48:00,
2013-07-02 15:49:00,78.7,57.9,29.96,North,0,2.3,4.5,49,0.00,,,0.00,WUHU216HW,2013-07-02 20:49:00,
2013-07-02 15:50:00,78.8,58.1,29.96,North,0,3.6,4.5,49,0.00,,,0.00,WUHU216HW,2013-07-02 20:50:00,
2013-07-02 15:51:00,78.8,57.4,29.96,NNE,20,2.7,4.5,48,0.00,,,0.00,WUHU216HW,2013-07-02 20:51:00,
2013-07-02 15:52:00,78.8,57.4,29.96,NNW,338,1.8,4.5,48,0.00,,,0.00,WUHU216HW,2013-07-02 20:52:00,
2013-07-02 15:53:00,79.0,57.6,29.96,North,0,1.8,4.5,48,0.00,,,0.00,WUHU216HW,2013-07-02 20:53:00,
2013-07-02 15:54:00,79.0,57.6,29.96,NNE,23,3.4,4.5,48,0.00,,,0.00,WUHU216HW,2013-07-02 20:54:00,
2013-07-02 15:55:00,79.2,57.8,29.96,NNE,15,2.6,4.5,48,0.00,,,0.00,WUHU216HW,2013-07-02 20:55:00,
2013-07-02 15:56:00,79.4,58.0,29.95,WNW,293,2.7,3.6,48,0.00,,,0.00,WUHU216HW,2013-07-02 20:56:00,
2013-07-02 15:57:00,79.4,58.0,29.96,NW,309,2.2,3.6,48,0.00,,,0.00,WUHU216HW,2013-07-02 20:57:00,
2013-07-02 15:58:00,79.6,58.2,29.96,ENE,68,1.8,3.6,48,0.00,,,0.00,WUHU216HW,2013-07-02 20:58:00,
2013-07-02 15:59:00,79.6,58.2,29.95,North,0,3.4,3.6,48,0.00,,,0.00,WUHU216HW,2013-07-02 20:59:00,
2013-07-02 16:00:00,79.6,57.5,29.96,NNE,17,2.2,3.6,47,0.00,,,0.00,WUHU216HW,2013-07-02 21:00:00,
2013-07-02 16:01:00,79.6,58.2,29.95,NNW,338,3.4,3.4,48,0.00,,,0.00,WUHU216HW,2013-07-02 21:01:00,
2013-07-02 16:02:00,79.6,57.5,29.96,North,358,2.3,3.4,47,0.00,,,0.00,WUHU216HW,2013-07-02 21:02:00,
2013-07-02 16:04:00,79.4,56.7,29.95,North,0,6.9,6.9,46,0.00,,,0.00,WUHU216HW,2013-07-02 21:04:00,
2013-07-02 16:05:00,79.4,56.7,29.96,North,356,4.3,6.9,46,0.00,,,0.00,WUHU216HW,2013-07-02 21:05:00,
2013-07-02 16:06:00,79.4,56.7,29.95,North,0,2.2,6.9,46,0.00,,,0.00,WUHU216HW,2013-07-02 21:06:00,
2013-07-02 16:07:00,79.2,56.5,29.95,North,352,1.3,6.9,46,0.00,,,0.00,WUHU216HW,2013-07-02 21:07:00,
2013-07-02 16:08:00,79.2,57.2,29.95,NNW,338,1.8,6.9,47,0.00,,,0.00,WUHU216HW,2013-07-02 21:08:00,
2013-07-02 16:09:00,79.0,57.0,29.96,NNW,347,1.5,6.9,47,0.00,,,0.00,WUHU216HW,2013-07-02 21:09:00,
2013-07-02 16:10:00,78.8,56.9,29.96,North,0,2.7,6.9,47,0.00,,,0.00,WUHU216HW,2013-07-02 21:10:00,
2013-07-02 16:11:00,78.8,56.9,29.96,North,0,2.3,6.9,47,0.00,,,0.00,WUHU216HW,2013-07-02 21:11:00,
2013-07-02 16:12:00,78.5,56.5,29.96,NNE,20,1.8,6.9,47,0.00,,,0.00,WUHU216HW,2013-07-02 21:12:00,
2013-07-02 16:13:00,78.5,55.3,29.95,North,0,6.9,6.9,45,0.00,,,0.00,WUHU216HW,2013-07-02 21:13:00,
2013-07-02 16:14:00,78.3,54.6,29.95,North,8,5.4,6.9,44,0.00,,,0.00,WUHU216HW,2013-07-02 21:14:00,
2013-07-02 16:15:00,78.5,55.3,29.95,NE,49,3.0,6.9,45,0.00,,,0.00,WUHU216HW,2013-07-02 21:15:00,
2013-07-02 16:16:00,78.3,55.2,29.96,ENE,72,1.6,6.9,45,0.00,,,0.00,WUHU216HW,2013-07-02 21:16:00,
2013-07-02 16:17:00,78.3,55.2,29.95,NNW,330,1.0,6.9,45,0.00,,,0.00,WUHU216HW,2013-07-02 21:17:00,
2013-07-02 16:18:00,78.3,55.7,29.95,North,0,1.1,6.9,46,0.00,,,0.00,WUHU216HW,2013-07-02 21:18:00,
2013-07-02 16:19:00,78.3,55.7,29.95,NNE,23,1.1,6.9,46,0.00,,,0.00,WUHU216HW,2013-07-02 21:19:00,
2013-07-02 16:20:00,78.3,56.3,29.95,NNE,23,1.1,6.9,47,0.00,,,0.00,WUHU216HW,2013-07-02 21:20:00,
2013-07-02 16:21:00,78.1,56.2,29.95,North,0,4.0,6.9,47,0.00,,,0.00,WUHU216HW,2013-07-02 21:21:00,
2013-07-02 16:22:00,78.1,55.6,29.95,North,6,2.8,6.9,46,0.00,,,0.00,WUHU216HW,2013-07-02 21:22:00,
2013-07-02 16:23:00,78.1,55.6,29.95,North,356,1.4,4.0,46,0.00,,,0.00,WUHU216HW,2013-07-02 21:23:00,
2013-07-02 16:33:00,78.3,57.0,29.95,East,90,3.6,3.6,48,0.00,,,0.00,WUHU216HW,2013-07-02 21:33:00,
2013-07-02 16:38:00,78.5,56.5,29.95,North,353,3.2,4.3,47,0.00,,,0.00,WUHU216HW,2013-07-02 21:38:00,
2013-07-02 16:43:00,78.5,57.2,29.95,North,0,1.8,4.3,48,0.00,,,0.00,WUHU216HW,2013-07-02 21:43:00,
2013-07-02 16:48:00,78.3,56.3,29.95,North,0,0.9,4.0,47,0.00,,,0.00,WUHU216HW,2013-07-02 21:48:00,
2013-07-02 16:53:00,78.1,56.8,29.95,NNE,23,1.8,4.0,48,0.00,,,0.00,WUHU216HW,2013-07-02 21:53:00,
2013-07-02 16:58:00,78.7,57.9,29.95,North,0,1.6,6.9,49,0.00,,,0.00,WUHU216HW,2013-07-02 21:58:00,
2013-07-02 17:03:00,78.5,56.5,29.95,North,6,3.3,6.9,47,0.00,,,0.00,WUHU216HW,2013-07-02 22:03:00,
2013-07-02 17:08:00,78.5,57.2,29.95,NNW,338,4.7,5.4,48,0.00,,,0.00,WUHU216HW,2013-07-02 22:08:00,
2013-07-02 17:13:00,79.0,57.6,29.95,North,351,1.5,4.7,48,0.00,,,0.00,WUHU216HW,2013-07-02 22:13:00,
2013-07-02 17:18:00,78.8,56.9,29.94,North,0,3.7,4.5,47,0.00,,,0.00,WUHU216HW,2013-07-02 22:18:00,
2013-07-02 17:23:00,78.5,56.5,29.95,NNE,23,1.3,4.5,47,0.00,,,0.00,WUHU216HW,2013-07-02 22:23:00,
2013-07-02 17:28:00,78.5,57.2,29.95,North,0,1.5,4.5,48,0.00,,,0.00,WUHU216HW,2013-07-02 22:28:00,
2013-07-02 17:33:00,78.3,55.7,29.95,NNW,347,1.9,4.5,46,0.00,,,0.00,WUHU216HW,2013-07-02 22:33:00,
2013-07-02 17:38:00,78.1,56.2,29.95,North,0,2.0,4.0,47,0.00,,,0.00,WUHU216HW,2013-07-02 22:38:00,
2013-07-02 17:43:00,77.9,56.1,29.95,NE,45,5.6,5.6,47,0.00,,,0.00,WUHU216HW,2013-07-02 22:43:00,
2013-07-02 17:48:00,78.1,55.6,29.94,North,0,3.8,5.6,46,0.00,,,0.00,WUHU216HW,2013-07-02 22:48:00,
2013-07-02 17:53:00,78.1,56.2,29.94,WNW,293,2.5,5.6,47,0.00,,,0.00,WUHU216HW,2013-07-02 22:53:00,
2013-07-02 17:58:00,78.1,56.8,29.94,North,8,1.5,2.7,48,0.00,,,0.00,WUHU216HW,2013-07-02 22:58:00,
2013-07-02 18:03:00,78.3,56.3,29.94,North,0,2.2,2.5,47,0.00,,,0.00,WUHU216HW,2013-07-02 23:03:00,
2013-07-02 18:08:00,78.5,57.2,29.94,North,0,2.6,3.4,48,0.00,,,0.00,WUHU216HW,2013-07-02 23:08:00,
2013-07-02 18:13:00,78.7,56.7,29.95,NNE,23,3.1,3.4,47,0.00,,,0.00,WUHU216HW,2013-07-02 23:13:00,
2013-07-02 18:18:00,78.5,56.5,29.95,NNE,23,3.4,3.4,47,0.00,,,0.00,WUHU216HW,2013-07-02 23:18:00,
2013-07-02 18:23:00,78.5,57.2,29.94,North,0,1.3,3.4,48,0.00,,,0.00,WUHU216HW,2013-07-02 23:23:00,
2013-07-02 18:28:00,78.7,56.1,29.94,NW,315,4.0,4.0,46,0.00,,,0.00,WUHU216HW,2013-07-02 23:28:00,
2013-07-02 18:29:00,78.5,56.5,29.94,NNW,335,2.9,4.0,47,0.00,,,0.00,WUHU216HW,2013-07-02 23:29:00,
2013-07-02 18:34:00,78.7,56.7,29.94,SW,225,2.7,4.0,47,0.00,,,0.00,WUHU216HW,2013-07-02 23:34:00,
2013-07-02 18:39:00,78.8,57.4,29.94,NNW,338,1.1,2.7,48,0.00,,,0.00,WUHU216HW,2013-07-02 23:39:00,
2013-07-02 18:44:00,79.0,57.0,29.95,NNE,23,2.2,4.9,47,0.00,,,0.00,WUHU216HW,2013-07-02 23:44:00,
2013-07-02 18:49:00,78.8,56.9,29.95,North,0,2.0,4.9,47,0.00,,,0.00,WUHU216HW,2013-07-02 23:49:00,
2013-07-02 18:54:00,78.3,56.3,29.95,North,0,1.7,2.0,47,0.00,,,0.00,WUHU216HW,2013-07-02 23:54:00,
2013-07-02 18:59:00,78.1,56.2,29.95,East,90,2.2,2.2,47,0.00,,,0.00,WUHU216HW,2013-07-02 23:59:00,
2013-07-02 19:01:00,77.9,56.1,29.95,North,0,0.9,2.2,47,0.00,,,0.00,WUHU216HW,2013-07-03 00:01:00,
2013-07-02 19:06:00,77.6,56.4,29.95,NNW,338,2.5,3.1,48,0.00,,,0.00,WUHU216HW,2013-07-03 00:06:00,
2013-07-02 19:11:00,77.0,56.4,29.95,NW,323,1.0,3.1,49,0.00,,,0.00,WUHU216HW,2013-07-03 00:11:00,
2013-07-02 19:16:00,76.7,56.7,29.95,NNW,338,0.4,1.3,50,0.00,,,0.00,WUHU216HW,2013-07-03 00:16:00,
2013-07-02 19:21:00,76.3,55.8,29.95,NNW,338,1.6,1.6,49,0.00,,,0.00,WUHU216HW,2013-07-03 00:21:00,
2013-07-02 19:23:00,76.1,55.6,29.95,NNE,23,2.3,2.7,49,0.00,,,0.00,WUHU216HW,2013-07-03 00:23:00,
2013-07-02 19:24:00,76.0,55.4,29.95,NNE,16,1.3,2.7,49,0.00,,,0.00,WUHU216HW,2013-07-03 00:24:00,
2013-07-02 19:28:00,75.8,55.9,29.95,NNE,23,0.4,2.7,50,0.00,,,0.00,WUHU216HW,2013-07-03 00:28:00,
2013-07-02 19:33:00,75.4,56.1,29.95,North,0,0.4,1.1,51,0.00,,,0.00,WUHU216HW,2013-07-03 00:33:00,
2013-07-02 19:38:00,74.9,56.1,29.95,North,0,0.0,0.7,52,0.00,,,0.00,WUHU216HW,2013-07-03 00:38:00,
2013-07-02 19:43:00,74.5,55.7,29.95,North,0,0.0,0.2,52,0.00,,,0.00,WUHU216HW,2013-07-03 00:43:00,
2013-07-02 19:48:00,74.2,55.9,29.95,North,0,0.0,0.0,53,0.00,,,0.00,WUHU216HW,2013-07-03 00:48:00,
2013-07-02 19:53:00,73.8,56.0,29.95,North,0,0.0,0.0,54,0.00,,,0.00,WUHU216HW,2013-07-03 00:53:00,
2013-07-02 19:58:00,73.4,55.6,29.96,North,0,0.0,0.0,54,0.00,,,0.00,WUHU216HW,2013-07-03 00:58:00,
2013-07-02 20:00:00,73.4,55.6,29.96,North,0,0.0,0.0,54,0.00,,,0.00,WUHU216HW,2013-07-03 01:00:00,
2013-07-02 20:03:00,73.1,55.8,29.96,North,0,0.0,0.0,55,0.00,,,0.00,WUHU216HW,2013-07-03 01:03:00,
2013-07-02 20:08:00,72.9,55.7,29.95,North,0,0.0,0.0,55,0.00,,,0.00,WUHU216HW,2013-07-03 01:08:00,
2013-07-02 20:09:00,72.7,56.0,29.96,North,0,0.0,0.0,56,0.00,,,0.00,WUHU216HW,2013-07-03 01:09:00,
2013-07-02 20:14:00,72.5,55.9,29.96,North,0,0.0,0.0,56,0.00,,,0.00,WUHU216HW,2013-07-03 01:14:00,
2013-07-02 20:19:00,72.2,56.1,29.96,North,0,0.0,0.0,57,0.00,,,0.00,WUHU216HW,2013-07-03 01:19:00,
2013-07-02 20:24:00,71.8,55.7,29.96,North,0,0.0,0.0,57,0.00,,,0.00,WUHU216HW,2013-07-03 01:24:00,
2013-07-02 20:26:00,71.6,55.5,29.96,North,0,0.0,0.0,57,0.00,,,0.00,WUHU216HW,2013-07-03 01:26:00,
2013-07-02 20:31:00,71.3,55.3,29.96,North,0,0.0,0.0,57,0.00,,,0.00,WUHU216HW,2013-07-03 01:31:00,
2013-07-02 20:36:00,70.9,54.9,29.96,North,0,0.0,0.0,57,0.00,,,0.00,WUHU216HW,2013-07-03 01:36:00,
2013-07-02 20:41:00,70.6,55.1,29.96,North,0,0.0,0.0,58,0.00,,,0.00,WUHU216HW,2013-07-03 01:41:00,
2013-07-02 20:46:00,70.2,54.3,29.96,North,0,0.0,0.0,57,0.00,,,0.00,WUHU216HW,2013-07-03 01:46:00,
2013-07-02 20:49:00,70.2,54.7,29.96,North,0,0.0,0.0,58,0.00,,,0.00,WUHU216HW,2013-07-03 01:49:00,
2013-07-02 20:50:00,70.2,54.7,29.95,North,0,0.0,0.0,58,0.00,,,0.00,WUHU216HW,2013-07-03 01:50:00,
2013-07-02 20:55:00,69.8,54.5,29.96,North,0,0.0,0.0,58,0.00,,,0.00,WUHU216HW,2013-07-03 01:55:00,
2013-07-02 21:01:00,69.5,54.5,29.96,North,0,0.0,0.0,59,0.00,,,0.00,WUHU216HW,2013-07-03 02:01:00,
2013-07-02 21:06:00,69.1,54.2,29.96,North,0,0.0,0.0,59,0.00,,,0.00,WUHU216HW,2013-07-03 02:06:00,
2013-07-02 21:11:00,68.9,54.5,29.96,North,0,0.0,0.0,60,0.00,,,0.00,WUHU216HW,2013-07-03 02:11:00,
2013-07-02 21:16:00,68.6,54.2,29.96,North,0,0.0,0.0,60,0.00,,,0.00,WUHU216HW,2013-07-03 02:16:00,
2013-07-02 21:21:00,68.4,54.5,29.96,North,0,0.0,0.0,61,0.00,,,0.00,WUHU216HW,2013-07-03 02:21:00,
2013-07-02 21:26:00,68.2,54.3,29.96,North,0,0.0,0.0,61,0.00,,,0.00,WUHU216HW,2013-07-03 02:26:00,
2013-07-02 21:31:00,68.0,54.6,29.96,North,0,0.0,0.0,62,0.00,,,0.00,WUHU216HW,2013-07-03 02:31:00,
2013-07-02 21:32:00,68.0,54.6,29.96,North,0,0.0,0.0,62,0.00,,,0.00,WUHU216HW,2013-07-03 02:32:00,
2013-07-02 21:37:00,67.7,54.2,29.96,North,0,0.0,0.0,62,0.00,,,0.00,WUHU216HW,2013-07-03 02:37:00,
2013-07-02 21:42:00,67.5,54.0,29.96,North,0,0.0,0.0,62,0.00,,,0.00,WUHU216HW,2013-07-03 02:42:00,
2013-07-02 21:46:00,67.3,54.3,29.96,North,0,0.0,0.0,63,0.00,,,0.00,WUHU216HW,2013-07-03 02:46:00,
2013-07-02 21:51:00,67.1,54.1,29.96,North,0,0.0,0.0,63,0.00,,,0.00,WUHU216HW,2013-07-03 02:51:00,
2013-07-02 21:57:00,67.0,54.4,29.97,North,0,0.0,0.0,64,0.00,,,0.00,WUHU216HW,2013-07-03 02:57:00,
2013-07-02 22:02:00,66.6,54.0,29.98,North,0,0.0,0.0,64,0.00,,,0.00,WUHU216HW,2013-07-03 03:02:00,
2013-07-02 22:07:00,66.6,54.5,29.97,North,0,0.0,0.0,65,0.00,,,0.00,WUHU216HW,2013-07-03 03:07:00,
2013-07-02 22:13:00,66.2,54.1,29.98,North,0,0.0,0.0,65,0.00,,,0.00,WUHU216HW,2013-07-03 03:13:00,
2013-07-02 22:18:00,66.1,54.4,29.98,North,0,0.0,0.0,66,0.00,,,0.00,WUHU216HW,2013-07-03 03:18:00,
2013-07-02 22:22:00,65.9,54.2,29.98,North,0,0.0,0.0,66,0.00,,,0.00,WUHU216HW,2013-07-03 03:22:00,
2013-07-02 22:27:00,65.7,54.5,29.98,North,0,0.0,0.0,67,0.00,,,0.00,WUHU216HW,2013-07-03 03:27:00,
2013-07-02 22:33:00,65.5,54.3,29.98,North,0,0.0,0.0,67,0.00,,,0.00,WUHU216HW,2013-07-03 03:33:00,
2013-07-02 22:35:00,65.5,54.3,29.98,North,0,0.0,0.0,67,0.00,,,0.00,WUHU216HW,2013-07-03 03:35:00,
2013-07-02 22:39:00,65.2,53.9,29.98,North,0,0.0,0.0,67,0.00,,,0.00,WUHU216HW,2013-07-03 03:39:00,
2013-07-02 22:44:00,65.2,54.4,29.98,North,0,0.0,0.0,68,0.00,,,0.00,WUHU216HW,2013-07-03 03:44:00,
2013-07-02 22:49:00,65.2,54.4,29.98,NNE,23,0.0,0.0,68,0.00,,,0.00,WUHU216HW,2013-07-03 03:49:00,
2013-07-02 22:54:00,65.0,54.2,29.98,NNE,23,0.0,0.0,68,0.00,,,0.00,WUHU216HW,2013-07-03 03:54:00,
2013-07-02 22:59:00,64.8,54.5,29.98,NNE,23,0.0,0.0,69,0.00,,,0.00,WUHU216HW,2013-07-03 03:59:00,
2013-07-02 23:00:00,64.8,54.5,29.98,NNE,23,0.0,0.0,69,0.00,,,0.00,WUHU216HW,2013-07-03 04:00:00,
2013-07-02 23:01:00,64.8,54.5,29.98,NNE,23,0.0,0.0,69,0.00,,,0.00,WUHU216HW,2013-07-03 04:01:00,
2013-07-02 23:02:00,64.6,54.3,29.98,NNE,23,0.0,0.0,69,0.00,,,0.00,WUHU216HW,2013-07-03 04:02:00,
2013-07-02 23:03:00,64.6,54.3,29.98,NNE,23,0.0,0.0,69,0.00,,,0.00,WUHU216HW,2013-07-03 04:03:00,
2013-07-02 23:04:00,64.6,54.3,29.98,NNE,23,0.0,0.0,69,0.00,,,0.00,WUHU216HW,2013-07-03 04:04:00,
2013-07-02 23:09:00,64.4,54.1,29.98,NNE,23,0.0,0.0,69,0.00,,,0.00,WUHU216HW,2013-07-03 04:09:00,
2013-07-02 23:14:00,64.4,54.1,29.98,NE,45,0.0,0.0,69,0.00,,,0.00,WUHU216HW,2013-07-03 04:14:00,
2013-07-02 23:19:00,64.3,54.4,29.98,NE,45,0.0,0.0,70,0.00,,,0.00,WUHU216HW,2013-07-03 04:19:00,
2013-07-02 23:24:00,64.1,54.2,29.98,NE,45,0.0,0.0,70,0.00,,,0.00,WUHU216HW,2013-07-03 04:24:00,
2013-07-02 23:29:00,64.1,54.2,29.98,NE,45,0.0,0.0,70,0.00,,,0.00,WUHU216HW,2013-07-03 04:29:00,
2013-07-02 23:31:00,64.1,54.2,29.98,NE,45,0.0,0.0,70,0.00,,,0.00,WUHU216HW,2013-07-03 04:31:00,
2013-07-02 23:32:00,63.9,54.0,29.98,NE,45,0.0,0.0,70,0.00,,,0.00,WUHU216HW,2013-07-03 04:32:00,
2013-07-02 23:37:00,63.7,54.5,29.99,SSW,203,0.2,1.1,72,0.00,,,0.00,WUHU216HW,2013-07-03 04:37:00,
2013-07-02 23:42:00,63.5,54.4,29.99,South,180,0.0,1.1,72,0.00,,,0.00,WUHU216HW,2013-07-03 04:42:00,
2013-07-02 23:45:00,63.4,54.2,29.98,South,180,0.0,0.4,72,0.00,,,0.00,WUHU216HW,2013-07-03 04:45:00,
2013-07-02 23:46:00,63.4,54.2,29.98,South,180,0.0,0.0,72,0.00,,,0.00,WUHU216HW,2013-07-03 04:46:00,
2013-07-02 23:51:00,63.4,54.5,29.98,SSE,158,0.0,0.0,73,0.00,,,0.00,WUHU216HW,2013-07-03 04:51:00,
2013-07-02 23:53:00,63.2,54.4,29.98,SSE,158,0.0,0.0,73,0.00,,,0.00,WUHU216HW,2013-07-03 04:53:00,
2013-07-02 23:58:00,63.0,54.2,29.98,SE,135,0.0,0.0,73,0.00,,,0.00,WUHU216HW,2013-07-03 04:58:00,